| time (UTC) | temp F | wind direction | speed MPH | gust MPH | rain 1hr in | rain 24hr in | rain mn in | humidity % | barometer mb |
| 20260902210348 | 66 | 132 | 1.0 | 0.0 | 0.00 | 0.00 | 0.00 | 39 | 1001.8 |
| 20260902200345 | 67 | 150 | 1.0 | 0.0 | 0.00 | 0.00 | 0.00 | 38 | 1001.9 |
| 20260902190349 | 65 | 103 | 1.0 | 0.0 | 0.00 | 0.00 | 0.00 | 45 | 1003.1 |
| 20260902180339 | 62 | 117 | 0.0 | 0.0 | 0.00 | 0.00 | 0.00 | 58 | 1003.7 |
| 20260902170338 | 57 | 97 | 0.0 | 0.0 | 0.00 | 0.00 | 0.00 | 73 | 1004.1 |
| 20260902160335 | 51 | 97 | 0.0 | 0.0 | 0.00 | 0.00 | 0.00 | 90 | 1004.2 |
| 20260902150343 | 48 | 97 | 0.0 | 0.0 | 0.00 | 0.00 | 0.00 | 96 | 1005.1 |
| 20260902140347 | 48 | 97 | 0.0 | 0.0 | 0.00 | 0.00 | 0.00 | 99 | 1005.0 |
| 20260902130409 | 49 | 97 | 0.0 | 0.0 | 0.00 | 0.00 | 0.00 | 96 | 1005.0 |
| 20260902120340 | 50 | 97 | 0.0 | 0.0 | 0.00 | 0.00 | 0.00 | 92 | 1005.9 |
| 20260902110358 | 52 | 97 | 0.0 | 0.0 | 0.00 | 0.00 | 0.00 | 87 | 1006.5 |
| 20260902100347 | 52 | 97 | 0.0 | 0.0 | 0.00 | 0.00 | 0.00 | 89 | 1005.6 |
| 20260902090340 | 53 | 97 | 0.0 | 0.0 | 0.00 | 0.00 | 0.00 | 86 | 1006.4 |
| 20260902080330 | 54 | 97 | 0.0 | 0.0 | 0.00 | 0.00 | 0.00 | 84 | 1007.2 |
| 20260902070348 | 54 | 97 | 0.0 | 0.0 | 0.00 | 0.00 | 0.00 | 86 | 1006.0 |
| 20260902060332 | 57 | 97 | 0.0 | 0.0 | 0.00 | 0.00 | 0.00 | 83 | 1005.8 |
| 20260902050343 | 60 | 97 | 0.0 | 0.0 | 0.00 | 0.00 | 0.00 | 77 | 1006.1 |
| 20260902040347 | 62 | 59 | 0.0 | 0.0 | 0.00 | 0.00 | 0.00 | 69 | 1005.0 |
| 20260902030350 | 67 | 282 | 1.0 | 0.0 | 0.00 | 0.00 | 0.00 | 56 | 1004.4 |
| 20260902020337 | 69 | 347 | 1.0 | 0.0 | 0.00 | 0.00 | 0.00 | 54 | 1003.7 |
| 20260902010336 | 72 | 289 | 0.0 | 0.0 | 0.00 | 0.00 | 0.00 | 50 | 1003.6 |
| 20260902000346 | 75 | 292 | 1.0 | 0.0 | 0.00 | 0.00 | 0.00 | 46 | 1002.9 |
| 20260901230329 | 76 | 16 | 2.0 | 0.0 | 0.00 | 0.00 | 0.00 | 42 | 1002.8 |
| 20260901220343 | 77 | 101 | 0.0 | 0.0 | 0.00 | 0.00 | 0.00 | 28 | 1003.1 |